Flag for Mozambique Weather past 2 weeks in Nampula, Mozambique

Now
68 °F

Clear.


Feels Like: 68 °F
Forecast: 64 / 81 °F
Wind: N/A

Location: Nampula Airport

Current Time: May 29, 2015 at 3:28:31 AM

Latest Report: May 29, 2015 at 2:00 AM


Visibility: 10 mi

Pressure: 30.04 "Hg

Humidity: 100%

Dew point: 68 °F

Location of NampulaLocation

Historic Weather in Nampula — Graph

°F

Nampula temperature yesterday

Maximum temperature yesterday: 82 °F (at 2:00 PM)
Minimum temperature yesterday: 68 °F (at 4:00 AM)
Average temperature yesterday: 75 °F

Past Weeks' High & Low Weather Summary

 TemperatureHumidityPressure
High86 °F (May 15, 1:00 PM)100% (May 14, 5:00 AM)30.48 "Hg (May 14, 5:00 AM)
Low52 °F (May 17, 8:00 AM)38% (May 15, 1:00 PM)29.98 "Hg (May 14, 3:00 PM)
Average75 °F69%30.10 "Hg
* Reported May 14 2:00 AM — May 29 2:00 AM, Nampula, Weather by CustomWeather, © 2015

Note: Actual official high and low records may vary slightly from our data, if they occured in-between our weather recording intervals... More about our weather records

Advertising

Nampula weather history for previous 24 hours

 ConditionsComfort  
Time TempWeatherWind HumidityBarometerVisibility
2:00 AM
Fri, May 29
68 °FClear.N/A100%30.04 "Hg10 mi
1:00 AM70 °FClear.N/A94%30.07 "Hg10 mi
11:00 PM
Thu, May 28
70 °FPassing clouds.N/A94%30.09 "HgN/A
10:00 PM72 °FPassing clouds.N/A88%30.09 "HgN/A
9:00 PM72 °FPassing clouds.N/A83%30.09 "HgN/A
8:00 PM77 °FPartly cloudy.7 mph65%30.09 "HgN/A
7:00 PM77 °FPartly cloudy.8 mph65%30.07 "HgN/A
6:00 PM79 °FPartly cloudy.8 mph58%30.07 "HgN/A
5:00 PM81 °FPartly cloudy.6 mph54%30.07 "HgN/A
4:00 PM81 °FBroken clouds.6 mph58%30.07 "HgN/A
3:00 PM82 °FBroken clouds.5 mph55%30.07 "HgN/A
2:00 PM82 °FScattered clouds.7 mph48%30.04 "HgN/A
12:00 PM81 °FBroken clouds.8 mph58%30.07 "HgN/A
10:00 AM75 °FBroken clouds.5 mph69%30.12 "HgN/A
9:00 AM72 °FBroken clouds.6 mph88%30.12 "HgN/A
8:00 AM70 °FFog.6 mph94%30.09 "Hg4 mi
5:00 AM68 °FPassing clouds.N/A100%30.09 "HgN/A
4:00 AM68 °FPassing clouds.N/A100%30.07 "HgN/A
3:00 AM70 °FPassing clouds.N/A94%30.07 "HgN/A
Weather by CustomWeather, © 2015

See weather overviewHow to use our weather pages